Tracking 25707 objects as of 29-Jun-2022
HD Live streaming from Space Station
objects crossing your sky now

DELTA 1 DEB

Track DELTA 1 DEB now!
10-day predictions


NORAD ID: 13574
Int'l Code: 1978-026FM
Perigee: 823.2 km
Apogee: 878.7 km
Inclination: 98.9 °
Period: 101.8 minutes
Semi major axis: 7221 km
RCS: 0.0387 m2 (small)
Launch date: March 5, 1978
Source: United States (US)
Launch site: AIR FORCE WESTERN TEST RANGE (AFWTR)

Note: This is SATELLITE DEBRIS
aabbcc
Your satellite tracking list
Your tracking list is empty




NASA's NSSDC Master Catalog

Two Line Element Set (TLE):
1 13574U 78026FM  22179.83991007  .00000233  00000-0  14386-3 0  9994
2 13574  98.8755 140.9220 0038422 304.4044 121.9753 14.14561041101423
Source of the keplerian elements: AFSPC